カタログに戻る

XI'AN HANGTOU 1

運用中科学PO
NORAD 53445·PAYLOAD·🇨🇳 China
この衛星名は、まだ公式ソースで確認されていません。

打ち上げ Aug 10, 2022 から Taiyuan Satellite Launch Center

Loading…

次のパス (今後24時間)

TLE

最新Source: Space-Track

元期: Sep 14, 2026, 22:54 UTC

1 53445U 22098B   26257.95427154  .00161349  00000-0  78140-3 0  9998
2 53445  97.5703  35.3764 0001058 307.0461  53.0710 15.82066476228741

AllMySatでXI'AN HANGTOU 1をリアルタイム追跡

Download on the App Store